Location: ?ern� Novina
(50.6762°N, 14.8696°E)
Time: 17:55:40
(UTC+00:00)

SME Rocket - Pass Details

Date: 03 March 2021
Orbit: 550 x 2652 km, 99.9° (Epoch: 12 April)

Event Time Altitude Azimuth Distance (km) Brightness Sun altitude
Rises 19:04:32 0° 16° (NNE) 5,197 7.8 -22.6°
Reaches altitude 10° 19:08:09 10° 16° (NNE) 3,889 7.1 -23.1°
Maximum altitude 19:16:58 87° 291° (WNW) 1,156 4.3 -24.4°
Drops below altitude 10° 19:22:33 10° 201° (SSW) 2,514 6.1 -25.2°
Sets 19:24:29 0° 201° (SSW) 3,275 6.8 -25.5°
